,,,PA_Meas_PMT16A,,PR_Meas_QMR101_102,,RH_Meas_QMH101,,SR_Meas_QMS101,,TA_Meas_QMH101,,GenWind,,GenWind,
date,time,status,PA,status,PR,status,RH,status,SR,status,TA,status,DirAvg,status,SpdAvg,
2011-07-24, 00:00:04,VALID,1000.11,VALID,0,VALID,79.76,VALID,0,VALID,24.4428,VALID,127,VALID,0.0421875,
2011-07-24, 00:01:04,VALID,1000.09,VALID,0,VALID,80.2255,VALID,0,VALID,24.4233,VALID,127,VALID,0.278516,
2011-07-24, 00:02:04,VALID,1000.11,VALID,0,VALID,80.3857,VALID,0,VALID,24.4037,VALID,127,VALID,0.0828125,
2011-07-24, 00:03:04,VALID,1000.13,VALID,0,VALID,81.0723,VALID,0,VALID,24.3842,VALID,121,VALID,1.26484,
2011-07-24, 00:04:04,VALID,1000.06,VALID,0,VALID,80.8282,VALID,0,VALID,24.3238,VALID,127,VALID,1.63086,
2011-07-24, 00:05:04,VALID,1000.08,VALID,0,VALID,80.1797,VALID,0,VALID,24.3238,VALID,118,VALID,1.77617,
2011-07-24, 00:06:04,VALID,1000.09,VALID,0,VALID,79.6075,VALID,0.112286,VALID,24.3824,VALID,124,VALID,1.96133,
2011-07-24, 00:07:04,VALID,1000.11,VALID,0,VALID,79.4015,VALID,0,VALID,24.4623,VALID,115,VALID,1.85234,
2011-07-24, 00:08:04,VALID,1000.12,VALID,0,VALID,79.2183,VALID,0,VALID,24.4604,VALID,125,VALID,1.39219,
2011-07-24, 00:09:04,VALID,1000.12,VALID,0,VALID,79.081,VALID,0,VALID,24.48,VALID,133,VALID,1.51523,
2011-07-24, 00:10:04,VALID,1000.15,VALID,0,VALID,78.8979,VALID,0,VALID,24.4995,VALID,138,VALID,1.32969,
2011-07-24, 00:11:04,VALID,1000.15,VALID,0,VALID,79.081,VALID,0,VALID,24.5404,VALID,150,VALID,1.45547,
2011-07-24, 00:12:04,VALID,1000.11,VALID,0,VALID,78.9666,VALID,0.112286,VALID,24.519,VALID,133,VALID,1.80156,
2011-07-24, 00:13:04,VALID,1000.11,VALID,0,VALID,79.2794,VALID,0,VALID,24.519,VALID,140,VALID,1.45586,
2011-07-24, 00:14:04,VALID,1000.12,VALID,0,VALID,79.3175,VALID,0,VALID,24.5209,VALID,140,VALID,1.27422,
2011-07-24, 00:15:04,VALID,1000.08,VALID,0,VALID,79.2565,VALID,0,VALID,24.4604,VALID,133,VALID,1.40586,
2011-07-24, 00:16:04,VALID,1000.07,VALID,0,VALID,78.9284,VALID,0,VALID,24.4818,VALID,136,VALID,1.73281,
2011-07-24, 00:17:04,VALID,1000.06,VALID,0,VALID,79.1115,VALID,0,VALID,24.4604,VALID,137,VALID,1.81797,
2011-07-24, 00:18:04,VALID,1000.04,VALID,0,VALID,79.2565,VALID,0,VALID,24.4818,VALID,133,VALID,1.46133,
2011-07-24, 00:19:04,VALID,1000.04,VALID,0,VALID,79.4625,VALID,0,VALID,24.4409,VALID,141,VALID,1.34805,
2011-07-24, 00:20:04,VALID,1000.07,VALID,0,VALID,79.5693,VALID,0.112286,VALID,24.4214,VALID,145,VALID,1.18633,
2011-07-24, 00:21:04,VALID,1000.05,VALID,0,VALID,79.6456,VALID,0,VALID,24.3824,VALID,135,VALID,1.38008,
2011-07-24, 00:22:04,VALID,1000.02,VALID,0,VALID,79.6075,VALID,0,VALID,24.3824,VALID,131,VALID,1.55391,
2011-07-24, 00:23:04,VALID,999.982,VALID,0,VALID,79.3328,VALID,0,VALID,24.3433,VALID,137,VALID,2.14961,
2011-07-24, 00:24:04,VALID,999.98,VALID,0,VALID,79.0963,VALID,0.112286,VALID,24.4428,VALID,139,VALID,1.66055,
2011-07-24, 00:25:04,VALID,999.963,VALID,0,VALID,79.0276,VALID,0,VALID,24.4409,VALID,139,VALID,1.33477,
2011-07-24, 00:26:04,VALID,999.995,VALID,0,VALID,79.1039,VALID,0,VALID,24.4409,VALID,128,VALID,1.42734,
2011-07-24, 00:27:04,VALID,999.98,VALID,0,VALID,79.02,VALID,0,VALID,24.4623,VALID,136,VALID,1.45859,
2011-07-24, 00:28:04,VALID,1000.01,VALID,0,VALID,79.2489,VALID,0,VALID,24.4409,VALID,143,VALID,1.34648,
2011-07-24, 00:29:04,VALID,999.928,VALID,0,VALID,79.2641,VALID,0,VALID,24.4019,VALID,146,VALID,1.38711,
2011-07-24, 00:30:04,VALID,999.953,VALID,0,VALID,79.3328,VALID,0,VALID,24.4019,VALID,152,VALID,1.50391,
2011-07-24, 00:31:04,VALID,999.926,VALID,0,VALID,79.1955,VALID,0,VALID,24.4428,VALID,146,VALID,1.67266,
2011-07-24, 00:32:04,VALID,999.922,VALID,0,VALID,79.2641,VALID,0,VALID,24.4409,VALID,143,VALID,1.65273,
2011-07-24, 00:33:04,VALID,999.949,VALID,0,VALID,79.4243,VALID,0,VALID,24.4233,VALID,139,VALID,1.15547,
2011-07-24, 00:34:04,VALID,999.937,VALID,0,VALID,79.554,VALID,0.112286,VALID,24.4019,VALID,143,VALID,0.984375,
2011-07-24, 00:35:04,VALID,999.94,VALID,0,VALID,79.7219,VALID,0,VALID,24.3629,VALID,128,VALID,1.14141,
2011-07-24, 00:36:04,VALID,999.967,VALID,0,VALID,79.7219,VALID,0,VALID,24.3238,VALID,135,VALID,1.30781,
2011-07-24, 00:37:04,VALID,999.976,VALID,0,VALID,79.5464,VALID,0,VALID,24.3043,VALID,141,VALID,1.35039,
2011-07-24, 00:38:04,VALID,999.955,VALID,0,VALID,79.6609,VALID,0,VALID,24.3238,VALID,142,VALID,0.608594,
2011-07-24, 00:39:04,VALID,999.911,VALID,0,VALID,79.638,VALID,0,VALID,24.2848,VALID,145,VALID,1.07383,
2011-07-24, 00:40:04,VALID,999.895,VALID,0,VALID,79.638,VALID,0.112286,VALID,24.3062,VALID,147,VALID,0.933203,
2011-07-24, 00:41:04,VALID,999.885,VALID,0,VALID,79.432,VALID,0,VALID,24.3062,VALID,149,VALID,1.42266,
2011-07-24, 00:42:04,VALID,999.88,VALID,0,VALID,79.2412,VALID,0,VALID,24.3647,VALID,149,VALID,1.34531,
2011-07-24, 00:43:04,VALID,999.846,VALID,0,VALID,79.226,VALID,0,VALID,24.3433,VALID,134,VALID,1.02617,
2011-07-24, 00:44:04,VALID,999.819,VALID,0,VALID,79.1421,VALID,0,VALID,24.3433,VALID,124,VALID,0.651172,
2011-07-24, 00:45:04,VALID,999.818,VALID,0,VALID,78.9971,VALID,0,VALID,24.3433,VALID,129,VALID,1.0375,
2011-07-24, 00:46:04,VALID,999.78,VALID,0,VALID,78.9895,VALID,0,VALID,24.3433,VALID,137,VALID,1.19805,
2011-07-24, 00:47:04,VALID,999.786,VALID,0,VALID,78.9361,VALID,0,VALID,24.3647,VALID,145,VALID,1.07656,
2011-07-24, 00:48:04,VALID,999.745,VALID,0,VALID,78.9742,VALID,0.112286,VALID,24.3842,VALID,145,VALID,0.746875,
2011-07-24, 00:49:04,VALID,999.704,VALID,0,VALID,78.9208,VALID,0.112286,VALID,24.3629,VALID,145,VALID,0.792969,
2011-07-24, 00:50:04,VALID,999.736,VALID,0,VALID,78.9437,VALID,0,VALID,24.3629,VALID,146,VALID,0.903516,
2011-07-24, 00:51:04,VALID,999.69,VALID,0,VALID,78.8903,VALID,0,VALID,24.3629,VALID,144,VALID,0.894531,
2011-07-24, 00:52:04,VALID,999.726,VALID,0,VALID,79.0276,VALID,0,VALID,24.3433,VALID,106,VALID,0.464844,
2011-07-24, 00:53:04,VALID,999.752,VALID,0,VALID,78.9895,VALID,0,VALID,24.3043,VALID,134,VALID,0.331641,
2011-07-24, 00:54:04,VALID,999.701,VALID,0,VALID,79.081,VALID,0.112286,VALID,24.2653,VALID,134,VALID,0.446484,
2011-07-24, 00:55:04,VALID,999.709,VALID,0,VALID,79.1878,VALID,0.112286,VALID,24.2653,VALID,135,VALID,0.708984,
2011-07-24, 00:56:04,VALID,999.69,VALID,0,VALID,79.1421,VALID,0,VALID,24.2653,VALID,149,VALID,0.705469,
2011-07-24, 00:57:04,VALID,999.666,VALID,0,VALID,79.226,VALID,0,VALID,24.2653,VALID,173,VALID,0.589844,
2011-07-24, 00:58:04,VALID,999.671,VALID,0,VALID,79.1955,VALID,0,VALID,24.2848,VALID,173,VALID,0.563281,
2011-07-24, 00:59:04,VALID,999.675,VALID,0,VALID,79.1344,VALID,0,VALID,24.2653,VALID,162,VALID,0.643359,
2011-07-24, 01:00:04,VALID,999.661,VALID,0,VALID,79.4015,VALID,0,VALID,24.269,VALID,162,VALID,0.573438,
2011-07-24, 01:01:04,VALID,999.647,VALID,0,VALID,79.4243,VALID,0,VALID,24.2281,VALID,154,VALID,0.830469,
2011-07-24, 01:02:04,VALID,999.659,VALID,0,VALID,79.3175,VALID,0,VALID,24.2495,VALID,152,VALID,0.650391,
2011-07-24, 01:03:04,VALID,999.614,VALID,0,VALID,79.1955,VALID,0,VALID,24.269,VALID,144,VALID,0.691797,
2011-07-24, 01:04:04,VALID,999.619,VALID,0,VALID,78.9589,VALID,0,VALID,24.2671,VALID,141,VALID,0.370313,
2011-07-24, 01:05:04,VALID,999.576,VALID,0,VALID,78.9589,VALID,0,VALID,24.2885,VALID,141,VALID,0.313672,
2011-07-24, 01:06:04,VALID,999.569,VALID,0,VALID,79.0047,VALID,0,VALID,24.2476,VALID,141,VALID,0.208594,
2011-07-24, 01:07:04,VALID,999.572,VALID,0,VALID,79.0123,VALID,0,VALID,24.2299,VALID,149,VALID,0.645312,
2011-07-24, 01:08:04,VALID,999.564,VALID,0,VALID,79.0505,VALID,0,VALID,24.2299,VALID,168,VALID,0.991016,
2011-07-24, 01:09:04,VALID,999.514,VALID,0,VALID,78.5012,VALID,0,VALID,24.2671,VALID,168,VALID,1.06133,
2011-07-24, 01:10:04,VALID,999.519,VALID,0,VALID,78.3486,VALID,0,VALID,24.347,VALID,146,VALID,1.11016,
2011-07-24, 01:11:04,VALID,999.472,VALID,0,VALID,77.9747,VALID,0,VALID,24.4056,VALID,146,VALID,1.37812,
2011-07-24, 01:12:04,VALID,999.512,VALID,0,VALID,77.9595,VALID,0,VALID,24.4056,VALID,141,VALID,1.16445,
2011-07-24, 01:13:04,VALID,999.503,VALID,0,VALID,78.1121,VALID,0,VALID,24.4056,VALID,139,VALID,0.946094,
2011-07-24, 01:14:04,VALID,999.481,VALID,0,VALID,78.2418,VALID,0,VALID,24.3861,VALID,139,VALID,0.934766,
2011-07-24, 01:15:04,VALID,999.473,VALID,0,VALID,78.4325,VALID,0,VALID,24.3666,VALID,153,VALID,0.870313,
2011-07-24, 01:16:04,VALID,999.464,VALID,0,VALID,78.669,VALID,0,VALID,24.3666,VALID,153,VALID,0.759375,
2011-07-24, 01:17:04,VALID,999.415,VALID,0,VALID,78.814,VALID,0,VALID,24.3275,VALID,153,VALID,0.979688,
2011-07-24, 01:18:04,VALID,999.442,VALID,0,VALID,78.8979,VALID,0,VALID,24.3275,VALID,153,VALID,0.825,
2011-07-24, 01:19:04,VALID,999.412,VALID,0,VALID,79.0429,VALID,0,VALID,24.2885,VALID,145,VALID,0.783594,
2011-07-24, 01:20:04,VALID,999.366,VALID,0,VALID,78.9742,VALID,0,VALID,24.2476,VALID,145,VALID,0.923047,
2011-07-24, 01:21:04,VALID,999.346,VALID,0,VALID,78.9284,VALID,0,VALID,24.2495,VALID,144,VALID,0.864844,
2011-07-24, 01:22:04,VALID,999.343,VALID,0,VALID,79.0963,VALID,0,VALID,24.2495,VALID,144,VALID,0.601563,
2011-07-24, 01:23:04,VALID,999.33,VALID,0,VALID,79.3099,VALID,0,VALID,24.2104,VALID,144,VALID,0.724219,
2011-07-24, 01:24:04,VALID,999.338,VALID,0,VALID,79.4396,VALID,0,VALID,24.1714,VALID,143,VALID,0.529688,
2011-07-24, 01:25:04,VALID,999.354,VALID,0,VALID,79.6151,VALID,0,VALID,24.1519,VALID,142,VALID,0.289844,
2011-07-24, 01:26:04,VALID,999.334,VALID,0,VALID,80.2178,VALID,0,VALID,24.0933,VALID,191,VALID,0.529688,
2011-07-24, 01:27:04,VALID,999.317,VALID,0,VALID,80.7366,VALID,0,VALID,24.0348,VALID,234,VALID,0.514453,
2011-07-24, 01:28:04,VALID,999.339,VALID,0,VALID,80.935,VALID,0,VALID,23.9549,VALID,234,VALID,0.322656,
2011-07-24, 01:29:04,VALID,999.271,VALID,0,VALID,80.935,VALID,0,VALID,23.9567,VALID,234,VALID,0.441797,
2011-07-24, 01:30:04,VALID,999.328,VALID,0,VALID,81.347,VALID,0,VALID,23.8963,VALID,360,VALID,0.691406,
2011-07-24, 01:31:04,VALID,999.269,VALID,0,VALID,81.6446,VALID,0,VALID,23.7988,VALID,5,VALID,1.04961,
2011-07-24, 01:32:04,VALID,999.284,VALID,0,VALID,81.7743,VALID,0,VALID,23.8201,VALID,5,VALID,0.598437,
2011-07-24, 01:33:04,VALID,999.272,VALID,0,VALID,82.2397,VALID,0,VALID,23.7207,VALID,5,VALID,0.370703,
2011-07-24, 01:34:04,VALID,999.247,VALID,0,VALID,82.5983,VALID,0,VALID,23.6817,VALID,5,VALID,0.2125,
2011-07-24, 01:35:04,VALID,999.217,VALID,0,VALID,83.056,VALID,0,VALID,23.6232,VALID,5,VALID,0.369141,
2011-07-24, 01:36:04,VALID,999.23,VALID,0,VALID,83.5367,VALID,0,VALID,23.5256,VALID,5,VALID,0.464063,
2011-07-24, 01:37:04,VALID,999.175,VALID,0,VALID,83.9334,VALID,0,VALID,23.4653,VALID,5,VALID,0.635156,
2011-07-24, 01:38:04,VALID,999.145,VALID,0,VALID,84.4446,VALID,0,VALID,23.4475,VALID,5,VALID,0.619922,
2011-07-24, 01:39:04,VALID,999.145,VALID,0,VALID,84.6354,VALID,0,VALID,23.428,VALID,5,VALID,0.710547,
2011-07-24, 01:40:04,VALID,999.111,VALID,0,VALID,84.5972,VALID,0,VALID,23.428,VALID,5,VALID,0.400391,
2011-07-24, 01:41:04,VALID,999.128,VALID,0,VALID,84.643,VALID,0,VALID,23.389,VALID,62,VALID,0.801562,
2011-07-24, 01:42:04,VALID,999.122,VALID,0,VALID,84.9329,VALID,0,VALID,23.389,VALID,69,VALID,0.826563,
2011-07-24, 01:43:04,VALID,999.147,VALID,0,VALID,84.9482,VALID,0,VALID,23.3695,VALID,71,VALID,0.899219,
2011-07-24, 01:44:04,VALID,999.115,VALID,0,VALID,85.3907,VALID,0,VALID,23.35,VALID,83,VALID,1.28828,
2011-07-24, 01:45:04,VALID,999.121,VALID,0,VALID,85.9248,VALID,0,VALID,23.311,VALID,79,VALID,1.4375,
2011-07-24, 01:46:04,VALID,999.11,VALID,0,VALID,86.1384,VALID,0,VALID,23.2915,VALID,82,VALID,1.50898,
2011-07-24, 01:47:04,VALID,999.083,VALID,0,VALID,86.4131,VALID,0,VALID,23.2915,VALID,87,VALID,1.34727,
2011-07-24, 01:48:04,VALID,999.057,VALID,0,VALID,86.7869,VALID,0,VALID,23.2524,VALID,81,VALID,1.34687,
2011-07-24, 01:49:04,VALID,999.048,VALID,0,VALID,87.2142,VALID,0,VALID,23.1921,VALID,73,VALID,1.14492,
2011-07-24, 01:50:04,VALID,999.067,VALID,0,VALID,87.382,VALID,0.112286,VALID,23.1744,VALID,74,VALID,0.889063,
2011-07-24, 01:51:04,VALID,999.046,VALID,0,VALID,87.6338,VALID,0,VALID,23.1141,VALID,75,VALID,0.841797,
2011-07-24, 01:52:04,VALID,999.024,VALID,0,VALID,87.9543,VALID,0,VALID,23.0964,VALID,73,VALID,1.00156,
2011-07-24, 01:53:04,VALID,999.048,VALID,0,VALID,88.1374,VALID,0,VALID,23.0556,VALID,73,VALID,0.971875,
2011-07-24, 01:54:04,VALID,999.034,VALID,0,VALID,88.1679,VALID,0,VALID,23.0361,VALID,90,VALID,1.12734,
2011-07-24, 01:55:04,VALID,998.995,VALID,0,VALID,88.0687,VALID,0,VALID,23.0166,VALID,91,VALID,0.860937,
2011-07-24, 01:56:04,VALID,999.025,VALID,0,VALID,88.0077,VALID,0.112286,VALID,23.0361,VALID,91,VALID,0.6375,
2011-07-24, 01:57:04,VALID,999.039,VALID,0,VALID,87.8474,VALID,0,VALID,23.0556,VALID,91,VALID,0.613672,
2011-07-24, 01:58:04,VALID,999.055,VALID,0,VALID,87.7406,VALID,0,VALID,23.0769,VALID,113,VALID,0.942187,
2011-07-24, 01:59:04,VALID,999.036,VALID,0,VALID,87.8093,VALID,0.112286,VALID,23.0964,VALID,113,VALID,1.05586,
2011-07-24, 02:00:04,VALID,999.035,VALID,0,VALID,87.6186,VALID,0.112286,VALID,23.0964,VALID,113,VALID,0.585156,
2011-07-24, 02:01:04,VALID,999.047,VALID,0,VALID,87.4965,VALID,0,VALID,23.0751,VALID,113,VALID,0.134375,
2011-07-24, 02:02:04,VALID,999.102,VALID,0,VALID,87.4278,VALID,0,VALID,23.0769,VALID,113,VALID,0.253516,
2011-07-24, 02:03:04,VALID,999.104,VALID,0,VALID,87.4049,VALID,0.112286,VALID,23.0556,VALID,113,VALID,0.715625,
2011-07-24, 02:04:04,VALID,999.077,VALID,0,VALID,87.2371,VALID,0.112286,VALID,23.0556,VALID,113,VALID,0.602344,
2011-07-24, 02:05:04,VALID,999.088,VALID,0,VALID,86.8861,VALID,0,VALID,23.1336,VALID,113,VALID,1.23477,
2011-07-24, 02:06:04,VALID,999.094,VALID,0,VALID,86.7793,VALID,0,VALID,23.1744,VALID,114,VALID,1.3543,
2011-07-24, 02:07:04,VALID,999.053,VALID,0,VALID,86.7717,VALID,0,VALID,23.1921,VALID,108,VALID,0.967969,
2011-07-24, 02:08:04,VALID,999.101,VALID,0,VALID,86.558,VALID,0,VALID,23.2117,VALID,135,VALID,0.991016,
2011-07-24, 02:09:04,VALID,999.091,VALID,0,VALID,86.1308,VALID,0,VALID,23.2312,VALID,143,VALID,1.14297,
2011-07-24, 02:10:04,VALID,999.039,VALID,0,VALID,85.4899,VALID,0,VALID,23.311,VALID,138,VALID,0.982031,
2011-07-24, 02:11:04,VALID,999.069,VALID,0,VALID,85.0016,VALID,0,VALID,23.3695,VALID,136,VALID,1.22852,
2011-07-24, 02:12:04,VALID,999.097,VALID,0,VALID,84.6125,VALID,0,VALID,23.4475,VALID,168,VALID,1.50117,
2011-07-24, 02:13:04,VALID,999.07,VALID,0,VALID,84.1471,VALID,0,VALID,23.5061,VALID,163,VALID,1.32031,
2011-07-24, 02:14:04,VALID,999.047,VALID,0,VALID,83.4452,VALID,0,VALID,23.5823,VALID,143,VALID,1.61367,
2011-07-24, 02:15:04,VALID,999.019,VALID,0,VALID,82.6593,VALID,0,VALID,23.7012,VALID,136,VALID,1.51563,
2011-07-24, 02:16:04,VALID,999.039,VALID,0,VALID,82.2702,VALID,0,VALID,23.7775,VALID,140,VALID,1.34375,
2011-07-24, 02:17:04,VALID,999.051,VALID,0,VALID,82.0795,VALID,0,VALID,23.8378,VALID,143,VALID,1.25,
2011-07-24, 02:18:04,VALID,999.015,VALID,0,VALID,81.8429,VALID,0,VALID,23.8768,VALID,150,VALID,1.43828,
2011-07-24, 02:19:04,VALID,999.039,VALID,0,VALID,81.4615,VALID,0,VALID,23.8963,VALID,136,VALID,1.74844,
2011-07-24, 02:20:04,VALID,999.027,VALID,0,VALID,81.2555,VALID,0,VALID,23.9549,VALID,142,VALID,1.33008,
2011-07-24, 02:21:04,VALID,999.029,VALID,0,VALID,80.6069,VALID,0,VALID,24.0134,VALID,151,VALID,1.94844,
2011-07-24, 02:22:04,VALID,999.05,VALID,0,VALID,80.4391,VALID,0,VALID,24.0915,VALID,155,VALID,1.34492,
2011-07-24, 02:23:04,VALID,999.028,VALID,0,VALID,79.8211,VALID,0,VALID,24.1287,VALID,153,VALID,1.41172,
2011-07-24, 02:24:04,VALID,999.031,VALID,0,VALID,79.3404,VALID,0,VALID,24.2281,VALID,149,VALID,1.4957,
2011-07-24, 02:25:04,VALID,999.006,VALID,0,VALID,79.0886,VALID,0,VALID,24.2866,VALID,136,VALID,1.14336,
2011-07-24, 02:26:04,VALID,998.976,VALID,0,VALID,78.9361,VALID,0,VALID,24.2653,VALID,138,VALID,0.757422,
2011-07-24, 02:27:04,VALID,999.039,VALID,0,VALID,78.7987,VALID,0,VALID,24.2866,VALID,147,VALID,0.977344,
2011-07-24, 02:28:04,VALID,999.035,VALID,0,VALID,78.8521,VALID,0,VALID,24.2653,VALID,165,VALID,1.1543,
2011-07-24, 02:29:04,VALID,999.031,VALID,0,VALID,78.6843,VALID,0,VALID,24.3257,VALID,170,VALID,0.728516,
2011-07-24, 02:30:04,VALID,998.994,VALID,0,VALID,78.6309,VALID,0,VALID,24.3452,VALID,170,VALID,0.516797,
2011-07-24, 02:31:04,VALID,999.044,VALID,0,VALID,78.4935,VALID,0,VALID,24.3238,VALID,167,VALID,1.18047,
2011-07-24, 02:32:04,VALID,999.004,VALID,0,VALID,78.3486,VALID,0,VALID,24.3842,VALID,160,VALID,1.06328,
2011-07-24, 02:33:04,VALID,998.979,VALID,0,VALID,78.4478,VALID,0,VALID,24.3842,VALID,160,VALID,0.373437,
2011-07-24, 02:34:04,VALID,999.001,VALID,0,VALID,78.5927,VALID,0,VALID,24.3433,VALID,145,VALID,0.960938,
2011-07-24, 02:35:04,VALID,998.945,VALID,0,VALID,78.7453,VALID,0,VALID,24.3257,VALID,145,VALID,0.751953,
2011-07-24, 02:36:04,VALID,998.938,VALID,0,VALID,78.9208,VALID,0,VALID,24.2671,VALID,145,VALID,0.424219,
2011-07-24, 02:37:04,VALID,998.922,VALID,0,VALID,79.1344,VALID,0,VALID,24.2281,VALID,145,VALID,0.439844,
2011-07-24, 02:38:04,VALID,998.959,VALID,0,VALID,79.3786,VALID,0,VALID,24.1891,VALID,145,VALID,0.651172,
2011-07-24, 02:39:04,VALID,998.941,VALID,0,VALID,79.4243,VALID,0,VALID,24.1891,VALID,124,VALID,1.31133,
2011-07-24, 02:40:04,VALID,998.94,VALID,0,VALID,79.6914,VALID,0,VALID,24.15,VALID,130,VALID,0.804297,
2011-07-24, 02:41:04,VALID,998.952,VALID,0,VALID,80.4009,VALID,0.112286,VALID,24.0701,VALID,109,VALID,0.708984,
2011-07-24, 02:42:04,VALID,998.908,VALID,0,VALID,81.3546,VALID,0,VALID,24.0525,VALID,109,VALID,0.675391,
2011-07-24, 02:43:04,VALID,998.897,VALID,0,VALID,81.9879,VALID,0,VALID,23.9744,VALID,109,VALID,0.516016,
2011-07-24, 02:44:04,VALID,998.884,VALID,0,VALID,82.3617,VALID,0,VALID,23.8768,VALID,89,VALID,0.677734,
2011-07-24, 02:45:04,VALID,998.877,VALID,0,VALID,82.9721,VALID,0,VALID,23.7793,VALID,81,VALID,0.807031,
2011-07-24, 02:46:04,VALID,998.854,VALID,0,VALID,83.9106,VALID,0,VALID,23.6427,VALID,51,VALID,0.833203,
2011-07-24, 02:47:04,VALID,998.815,VALID,0,VALID,84.3912,VALID,0,VALID,23.5451,VALID,51,VALID,0.780469,
2011-07-24, 02:48:04,VALID,998.805,VALID,0,VALID,85.0321,VALID,0,VALID,23.428,VALID,24,VALID,0.891016,
2011-07-24, 02:49:04,VALID,998.836,VALID,0,VALID,85.4365,VALID,0,VALID,23.311,VALID,22,VALID,0.716016,
2011-07-24, 02:50:04,VALID,998.807,VALID,0,VALID,85.9095,VALID,0,VALID,23.1726,VALID,22,VALID,0.991797,
2011-07-24, 02:51:04,VALID,998.753,VALID,0,VALID,86.3978,VALID,0,VALID,23.0964,VALID,22,VALID,0.649609,
2011-07-24, 02:52:04,VALID,998.785,VALID,0,VALID,86.5733,VALID,0,VALID,22.9971,VALID,22,VALID,0.872266,
2011-07-24, 02:53:04,VALID,998.763,VALID,0,VALID,86.8861,VALID,0,VALID,22.919,VALID,22,VALID,1.11016,
2011-07-24, 02:54:04,VALID,998.769,VALID,0,VALID,87.3592,VALID,0,VALID,22.8818,VALID,22,VALID,1.15078,
2011-07-24, 02:55:04,VALID,998.77,VALID,0,VALID,87.5423,VALID,0,VALID,22.8232,VALID,14,VALID,1.17891,
2011-07-24, 02:56:04,VALID,998.789,VALID,0,VALID,87.7025,VALID,0,VALID,22.7842,VALID,357,VALID,0.861719,
2011-07-24, 02:57:04,VALID,998.78,VALID,0,VALID,87.8322,VALID,0,VALID,22.7842,VALID,357,VALID,0.397656,
2011-07-24, 02:58:04,VALID,998.792,VALID,0,VALID,87.8856,VALID,0,VALID,22.7647,VALID,357,VALID,0.575,
2011-07-24, 02:59:04,VALID,998.788,VALID,0,VALID,88,VALID,0,VALID,22.7257,VALID,357,VALID,0.246484,
2011-07-24, 03:00:04,VALID,998.792,VALID,0,VALID,88.1145,VALID,0,VALID,22.7257,VALID,357,VALID,0.395703,
2011-07-24, 03:01:04,VALID,998.774,VALID,0,VALID,88.1908,VALID,0,VALID,22.6867,VALID,357,VALID,0.128125,
2011-07-24, 03:02:04,VALID,998.766,VALID,0,VALID,88.0306,VALID,0,VALID,22.6477,VALID,357,VALID,0.396094,
2011-07-24, 03:03:04,VALID,998.764,VALID,0,VALID,88.1145,VALID,0,VALID,22.6087,VALID,357,VALID,0.295703,
2011-07-24, 03:04:04,VALID,998.744,VALID,0,VALID,88.3892,VALID,0,VALID,22.5696,VALID,357,VALID,0.371094,
2011-07-24, 03:05:04,VALID,998.724,VALID,0,VALID,88.7859,VALID,0,VALID,22.5501,VALID,4,VALID,0.828125,
2011-07-24, 03:06:04,VALID,998.733,VALID,0,VALID,88.824,VALID,0,VALID,22.6087,VALID,15,VALID,0.794531,
2011-07-24, 03:07:04,VALID,998.692,VALID,0,VALID,88.6257,VALID,0,VALID,22.6087,VALID,15,VALID,0.813281,
2011-07-24, 03:08:04,VALID,998.719,VALID,0,VALID,88.5723,VALID,0,VALID,22.6087,VALID,15,VALID,0.914453,
2011-07-24, 03:09:04,VALID,998.744,VALID,0,VALID,88.4654,VALID,0,VALID,22.6087,VALID,15,VALID,0.684375,
2011-07-24, 03:10:04,VALID,998.728,VALID,0,VALID,88.4807,VALID,0,VALID,22.6299,VALID,15,VALID,0.931641,
2011-07-24, 03:11:04,VALID,998.758,VALID,0,VALID,88.4883,VALID,0,VALID,22.6087,VALID,15,VALID,0.815234,
2011-07-24, 03:12:04,VALID,998.774,VALID,0,VALID,88.5494,VALID,0,VALID,22.6087,VALID,15,VALID,0.84375,
2011-07-24, 03:13:04,VALID,998.8,VALID,0,VALID,88.4426,VALID,0,VALID,22.5892,VALID,15,VALID,0.512109,
2011-07-24, 03:14:04,VALID,998.783,VALID,0,VALID,88.5951,VALID,0,VALID,22.5892,VALID,15,VALID,0.752734,
2011-07-24, 03:15:04,VALID,998.785,VALID,0,VALID,88.8851,VALID,0,VALID,22.5696,VALID,15,VALID,0.817187,
2011-07-24, 03:16:04,VALID,998.774,VALID,0,VALID,88.8774,VALID,0,VALID,22.5501,VALID,15,VALID,0.473047,
2011-07-24, 03:17:04,VALID,998.775,VALID,0,VALID,88.9843,VALID,0,VALID,22.5714,VALID,15,VALID,0.292969,
2011-07-24, 03:18:04,VALID,998.764,VALID,0,VALID,89.2055,VALID,0,VALID,22.5306,VALID,15,VALID,0.452344,
2011-07-24, 03:19:04,VALID,998.736,VALID,0,VALID,89.3047,VALID,0,VALID,22.5501,VALID,15,VALID,0.379687,
2011-07-24, 03:20:04,VALID,998.738,VALID,0,VALID,89.4191,VALID,0,VALID,22.5289,VALID,15,VALID,0.38125,
2011-07-24, 03:21:04,VALID,998.682,VALID,0,VALID,89.4344,VALID,0,VALID,22.5501,VALID,15,VALID,0.55,
2011-07-24, 03:22:04,VALID,998.674,VALID,0,VALID,89.4039,VALID,0,VALID,22.5501,VALID,15,VALID,0.290625,
2011-07-24, 03:23:04,VALID,998.67,VALID,0,VALID,89.3886,VALID,0,VALID,22.5501,VALID,15,VALID,0.0347656,
2011-07-24, 03:24:04,VALID,998.681,VALID,0,VALID,89.3963,VALID,0,VALID,22.5501,VALID,15,VALID,0.207422,
2011-07-24, 03:25:04,VALID,998.696,VALID,0,VALID,89.32,VALID,0,VALID,22.5501,VALID,15,VALID,0.315625,
2011-07-24, 03:26:04,VALID,998.688,VALID,0,VALID,89.4268,VALID,0,VALID,22.5501,VALID,15,VALID,0.472266,
2011-07-24, 03:27:04,VALID,998.695,VALID,0,VALID,89.587,VALID,0,VALID,22.5501,VALID,15,VALID,0.640625,
2011-07-24, 03:28:04,VALID,998.696,VALID,0,VALID,89.6862,VALID,0,VALID,22.5696,VALID,15,VALID,0.876562,
2011-07-24, 03:29:04,VALID,998.721,VALID,0,VALID,89.6557,VALID,0,VALID,22.5289,VALID,15,VALID,0.839453,
2011-07-24, 03:30:04,VALID,998.702,VALID,0,VALID,89.5717,VALID,0,VALID,22.4899,VALID,15,VALID,0.971094,
2011-07-24, 03:31:04,VALID,998.776,VALID,0,VALID,89.3734,VALID,0,VALID,22.4526,VALID,15,VALID,0.918359,
2011-07-24, 03:32:04,VALID,998.759,VALID,0,VALID,89.3047,VALID,0,VALID,22.3746,VALID,2,VALID,0.896094,
2011-07-24, 03:33:04,VALID,998.722,VALID,0,VALID,89.6633,VALID,0,VALID,22.3746,VALID,359,VALID,0.998438,
2011-07-24, 03:34:04,VALID,998.75,VALID,0,VALID,89.9837,VALID,0,VALID,22.3746,VALID,355,VALID,0.931641,
2011-07-24, 03:35:04,VALID,998.789,VALID,0,VALID,90.0906,VALID,0,VALID,22.3746,VALID,347,VALID,0.514063,
2011-07-24, 03:36:04,VALID,998.786,VALID,0,VALID,90.144,VALID,0,VALID,22.3551,VALID,322,VALID,0.770312,
2011-07-24, 03:37:04,VALID,998.802,VALID,0,VALID,90.3347,VALID,0,VALID,22.3941,VALID,318,VALID,0.769922,
2011-07-24, 03:38:04,VALID,998.773,VALID,0,VALID,90.4339,VALID,0,VALID,22.4526,VALID,349,VALID,0.983594,
2011-07-24, 03:39:04,VALID,998.797,VALID,0,VALID,90.3194,VALID,0,VALID,22.5111,VALID,356,VALID,0.829297,
2011-07-24, 03:40:04,VALID,998.789,VALID,0,VALID,90.0448,VALID,0,VALID,22.5501,VALID,12,VALID,0.818359,
2011-07-24, 03:41:04,VALID,998.779,VALID,0,VALID,89.7777,VALID,0,VALID,22.5679,VALID,12,VALID,0.769531,
2011-07-24, 03:42:04,VALID,998.76,VALID,0,VALID,89.4878,VALID,0,VALID,22.5892,VALID,12,VALID,0.948047,
2011-07-24, 03:43:04,VALID,998.763,VALID,0,VALID,89.3657,VALID,0,VALID,22.5696,VALID,12,VALID,0.802344,
2011-07-24, 03:44:04,VALID,998.74,VALID,0,VALID,89.3428,VALID,0,VALID,22.5501,VALID,12,VALID,0.726953,